Milton, FL

1:27 PM CST on February 08, 2016 (GMT -0600)
Whiting Field Naval Air Station (South)

Weather History for KNDZ - December, 2012

Change the Weather History Date:

Wednesday, December 5, 2012

  Actual Average (KNSE) Record (KNSE)
Temperature  
Mean Temperature 64 °F -  
Max Temperature 73 °F 63 °F 78 °F (2013)
Min Temperature 55 °F 45 °F 28 °F (2006)
Degree Days  
Heating Degree Days 1    
Growing Degree Days 14 (Base 50)    
Moisture  
Dew Point 57 °F    
Average Humidity 82    
Maximum Humidity 100    
Minimum Humidity 57    
Precipitation  
Precipitation 0.00 in - - ()
Sea Level Pressure  
Sea Level Pressure 30.09 in    
Wind  
Wind Speed 4 mph (East)    
Max Wind Speed 8 mph    
Max Gust Speed -    
Visibility 8 miles    
Events Fog    
Averages and records for this station are not official NWS values.
T = Trace of Precipitation, MM = Missing Value Source: NWS Daily Summary

Daily Weather History Graph

Daily Weather History Graph

Search for Another Location

Airport or City:

Trip Planner

Search our weather history database for the weather conditions in past years. The results will help you decide how hot, cold, wet, or windy it might be!

Date:

Astronomy

Dec. 05, 2012 Rise Set
Actual Time 6:31 AM CST 4:46 PM CST
Civil Twilight 6:04 AM CST 5:12 PM CST
Nautical Twilight 5:35 AM CST 5:42 PM CST
Astronomical Twilight 5:05 AM CST 6:11 PM CST
Moon 11:15 PM CST (12/5) 11:12 AM CST (12/5)
Length of Visible Light 11h 07m
Length of Day
10h 15m
Waning Gibbous, 59% of the Moon is Illuminated
Dec 5
Waning Gibbous
Dec 6
Last Quarter
Dec 13
New
Dec 19
First Quarter
Dec 28
Full

Hourly Weather History & Observations

Time (CST) Temp. Dew Point Humidity Pressure Visibility Wind Dir Wind Speed Gust Speed Precip Events Conditions
12:56 AM 59.0 °F 57.0 °F 93% 30.13 in 0.2 mi ENE 3.5 mph - N/A Fog Fog
1:56 AM 60.1 °F 57.9 °F 93% 30.13 in 0.2 mi ENE 4.6 mph - N/A Fog Fog
2:56 AM 59.0 °F 57.9 °F 96% 30.12 in 0.8 mi Calm Calm - N/A   Mist
3:56 AM 57.0 °F 55.0 °F 93% 30.12 in 1.0 mi ENE 3.5 mph - N/A   Mist
4:01 AM 57.2 °F 57.2 °F 100% 30.16 in 2.5 mi NE 3.5 mph - N/A   Scattered Clouds
4:08 AM 57.2 °F 57.2 °F 100% 30.16 in 7.0 mi NE 3.5 mph - N/A   Partly Cloudy
4:56 AM 55.9 °F 55.0 °F 97% 30.13 in 9.0 mi NE 3.5 mph - N/A   Clear
5:56 AM 57.0 °F 55.0 °F 93% 30.13 in 10.0 mi East 6.9 mph - N/A   Partly Cloudy
6:56 AM 57.9 °F 55.9 °F 93% 30.14 in 10.0 mi East 3.5 mph - N/A   Clear
8:56 AM 64.0 °F 57.9 °F 80% 30.16 in 10.0 mi ESE 4.6 mph - N/A   Clear
9:56 AM 69.1 °F 59.0 °F 70% 30.15 in 10.0 mi ESE 8.1 mph - N/A   Clear
10:56 AM 69.1 °F 60.1 °F 73% 30.12 in 10.0 mi East 5.8 mph - N/A   Clear
11:56 AM 71.1 °F 60.1 °F 68% 30.09 in 10.0 mi East 5.8 mph - N/A   Clear
12:56 PM 73.0 °F 59.0 °F 61% 30.06 in 10.0 mi SE 6.9 mph - N/A   Partly Cloudy
1:56 PM 73.9 °F 57.9 °F 57% 30.04 in 10.0 mi Calm Calm - N/A   Mostly Cloudy
2:56 PM 73.0 °F 57.9 °F 59% 30.03 in 10.0 mi SE 6.9 mph - N/A   Partly Cloudy
3:56 PM 71.1 °F 59.0 °F 66% 30.03 in 10.0 mi SE 3.5 mph - N/A   Partly Cloudy
4:56 PM 69.1 °F 59.0 °F 70% 30.04 in 10.0 mi SE 3.5 mph - N/A   Partly Cloudy
5:56 PM 69.1 °F 57.9 °F 68% 30.04 in 10.0 mi ESE 3.5 mph - N/A   Clear
6:56 PM 64.0 °F 57.0 °F 78% 30.05 in 10.0 mi East 3.5 mph - N/A   Clear
7:56 PM 64.0 °F 57.9 °F 80% 30.05 in 10.0 mi ENE 4.6 mph - N/A   Clear
8:56 PM 57.9 °F 55.9 °F 93% 30.05 in 10.0 mi Calm Calm - N/A   Clear
9:56 PM 60.1 °F 57.0 °F 90% 30.04 in 10.0 mi Calm Calm - N/A   Clear
10:56 PM 57.0 °F 55.0 °F 93% 30.04 in 10.0 mi ENE 4.6 mph - N/A   Clear
11:56 PM 57.0 °F 55.0 °F 93% 30.03 in 10.0 mi East 3.5 mph - N/A   Clear